Cloud_Cover
2 0 0 0 0 0 0 0 0 0 0 0 0 0 0 0 0 0 0 0 0 0 0 0 0 4 5 25 4 8 70 94 60 10 6 21 100 7 0 0 0 0 0 0 0
0 0 0 0 0 0 0 0 0 0 0 0 0 0 0 0 0 0 0 0 0 0 0 0 2 5 5 3 2 1 4 12 87 33 31 5 4 0 0 0 0 0 0 0 0
0 0 0 0 0 0 0 0 0 0 0 0 0 0 0 23 0 0 0 0 0 0 0 0 2 5 3 0 0 2 0 5 34 5 50 90 8 0 0 0 4 0 0 0 0
0 0 0 2 0 0 0 0 0 0 0 0 0 0 0 0 0 0 0 0 0 0 0 0 0 0 0 3 2 76 3 2 67 5 0 5 34 21 3 2 1 0 0 0 0
0 0 1 3 0 0 0 0 0 0 0 0 0 0 0 0 0 0 0 0 0 0 0 0 0 0 0 0 4 4 1 0 0 3 1 4 23 0 0 0 0 0 0 0 0
0 0 0 4 0 0 0 0 0 0 0 0 0 0 1 0 0 0 0 0 0 0 0 0 0 0 0 0 0 1 0 0 0 0 0 0 0 0 0 0 0 0 0 0 0
0 0 0 0 0 0 0 0 0 0 0 0 0 5 76 12 0 0 0 0 0 0 0 0 0 0 0 0 0 0 0 0 0 0 0 0 0 0 0 4 14 0 0 0 0
0 0 0 0 0 0 0 0 0 0 0 0 3 0 74 17 65 1 0 0 0 0 0 0 0 0 0 0 0 0 0 0 0 0 0 0 0 0 0 0 0 0 0 0 0
0 0 0 0 0 0 0 0 0 0 0 0 0 4 100 99 100 100 0 0 0 3 45 46 5 4 0 0 0 0 0 0 0 0 0 0 0 0 0 0 0 0 0 0 0
0 0 0 0 0 0 0 0 1 1 0 0 3 0 16 100 100 100 95 5 4 5 26 2 64 9 5 0 6 3 0 0 0 1 4 0 0 0 0 0 0 0 0 0 0
0 0 0 0 0 0 7 0 0 1 5 0 0 40 3 100 100 100 100 73 6 5 5 19 100 100 94 100 78 1 5 0 0 1 0 0 0 0 0 0 0 0 0 0 0
5 5 0 0 0 0 18 0 0 0 1 0 0 60 12 64 100 100 100 98 22 44 100 99 93 98 100 100 73 5 0 0 0 0 0 0 0 0 0 0 0 0 3 0 0
4 3 0 0 0 0 0 0 0 0 0 0 0 0 81 85 59 94 100 100 100 100 100 55 5 100 100 100 100 7 0 0 0 0 0 0 0 0 0 0 0 0 5 10 4
5 5 0 16 0 0 0 0 0 0 0 2 2 33 54 100 100 100 100 100 100 100 100 98 95 100 100 100 84 0 0 0 0 0 0 0 0 0 0 0 0 0 4 7 5
3 2 2 0 0 0 0 5 19 3 0 41 0 22 4 20 23 98 91 100 100 100 100 100 100 100 100 100 17 0 0 0 0 0 0 0 0 0 0 0 0 70 66 3 2
4 2 4 0 0 0 0 0 6 77 5 0 0 71 2 73 86 94 100 100 100 100 100 55 100 100 100 100 10 5 0 0 0 0 0 0 0 0 0 1 11 84 94 70 67
5 14 19 5 3 5 5 0 5 2 34 5 8 100 100 87 5 93 100 100 100 100 100 66 73 100 100 84 11 5 0 0 0 0 0 0 0 0 4 45 24 34 97 97 86
13 34 76 36 5 5 5 5 0 38 59 92 54 3 5 45 58 37 100 100 100 100 100 94 94 100 95 77 32 7 0 0 0 0 0 0 0 0 0 5 5 32 100 91 5
65 22 5 14 5 5 4 5 2 88 89 4 3 7 6 22 3 1 87 100 100 100 100 100 100 100 85 41 23 0 0 0 0 0 0 0 0 0 0 2 5 17 65 87 71
32 27 5 5 5 5 4 14 5 12 48 5 5 16 99 22 28 4 99 100 100 100 99 100 61 8 4 0 0 0 0 0 0 0 0 0 0 0 1 34 45 100 17 33 41
35 5 5 5 5 5 99 82 5 5 5 5 3 85 100 33 27 2 82 91 84 19 95 4 0 0 0 0 3 0 0 0 0 0 0 0 0 23 49 89 8 7 2 73 98
99 38 5 5 5 5 83 17 0 0 5 0 7 71 100 100 99 42 5 99 5 5 8 0 2 4 0 5 5 0 1 0 0 0 0 0 0 0 0 9 0 10 96 80 100
100 88 6 5 5 8 5 5 3 2 96 100 100 100 100 100 100 6 92 10 100 58 25 2 0 3 6 5 79 42 4 0 0 0 0 0 0 0 0 2 24 100 100 100 100
100 100 89 5 5 20 5 70 97 5 100 100 100 100 100 80 46 98 35 5 40 64 68 75 5 23 95 96 19 5 4 0 0 0 0 1 0 0 0 0 2 100 100 100 98
98 100 100 93 83 100 99 99 82 30 88 100 100 100 99 97 4 1 1 0 14 28 5 5 5 5 80 100 70 1 0 0 5 0 46 12 3 2 5 47 74 100 100 100 8
100 100 100 100 76 100 100 100 100 66 79 100 100 100 18 100 100 96 49 5 5 5 5 97 92 100 100 100 6 0 0 0 1 2 2 97 100 32 9 4 66 100 100 100 100
100 100 100 100 76 59 99 99 73 5 54 100 94 18 98 100 100 100 100 81 88 84 85 96 6 41 100 92 45 3 2 74 97 3 5 5 98 11 21 5 98 100 100 100 100